Hourly Data Report for September 11, 2017

All times are specified in Local Standard Time (LST). Add 1 hour to adjust for Daylight Saving Time where and when it is observed.

TORONTO INTL A
ONTARIO

43°40'36.000" N
79°37'50.000" W
173.40 m
6158731
71624
YYZ

Download Data

Hourly Data (September 2017)
Hourly Data Report for September 11, 2017
Temp Definition
°C
Dew Point Temp Definition
°C
Rel Hum Definition
%
Wind Dir Definition
10's deg

Wind Spd Definition
km/h
Visibility Definition
km
Stn Press Definition
kPa
Hmdx Definition


Wind Chill Definition


Weather Definition


TIME
00:00 Legend Double Dagger 12.8 6.5 65 5 7 24.1 100.95     LegendNANA
01:00 Legend Double Dagger 10.9 6.7 75 1 9 24.1 100.88     Clear
02:00 Legend Double Dagger 9.4 6.2 80 29 10 24.1 100.82     LegendNANA
03:00 Legend Double Dagger 9.7 6.4 80 1 6 24.1 100.74     LegendNANA
04:00 Legend Double Dagger 9.0 6.4 84 36 8 24.1 100.67     Clear
05:00 Legend Double Dagger 9.2 6.3 82 31 11 24.1 100.70     LegendNANA
06:00 Legend Double Dagger 8.8 5.7 81 27 6 24.1 100.78     LegendNANA
07:00 Legend Double Dagger 11.6 7.4 75 30 8 24.1 100.83     Clear
08:00 Legend Double Dagger 14.3 7.5 63 36 6 24.1 100.82     LegendNANA
09:00 Legend Double Dagger 16.5 9.4 62 29 4 24.1 100.79     LegendNANA
10:00 Legend Double Dagger 18.1 7.7 50 18 6 24.1 100.72     Mainly Clear
11:00 Legend Double Dagger 19.3 7.4 46 7 4 24.1 100.65     LegendNANA
12:00 Legend Double Dagger 20.7 7.3 41 13 5 24.1 100.59     LegendNANA
13:00 Legend Double Dagger 21.1 5.7 36 16 8 24.1 100.52     Mainly Clear
14:00 Legend Double Dagger 22.5 2.7 27 13 9 24.1 100.42     LegendNANA
15:00 Legend Double Dagger 22.0 0.6 24 15 9 24.1 100.36     LegendNANA
16:00 Legend Double Dagger 21.7 2.3 27 13 9 24.1 100.26     Mostly Cloudy
17:00 Legend Double Dagger 20.5 7.0 41 16 10 24.1 100.20     LegendNANA
18:00 Legend Double Dagger 18.5 8.4 52 16 8 24.1 100.18     LegendNANA
19:00 Legend Double Dagger 17.1 10.0 62 15 7 24.1 100.12     Mostly Cloudy
20:00 Legend Double Dagger 16.6 10.9 69 17 5 24.1 100.14     LegendNANA
21:00 Legend Double Dagger 15.7 11.4 76 18 6 24.1 100.08     LegendNANA
22:00 Legend Double Dagger 15.1 11.8 81 36 2 24.1 100.06     Mainly Clear
23:00 Legend Double Dagger 14.6 11.4 81 32 9 24.1 100.03     LegendNANA

Notes on Data Quality.

Legend

  • E = Estimated
  • M = Missing
  • NA = Not Available
  • ‡ = Partner data that is not subject to review by the National Climate Archives
Date modified: